| time (UTC) | temp F | wind direction | speed MPH | gust MPH | rain 1hr in | rain 24hr in | rain mn in | humidity % | barometer mb |
| 20260506013022 | 32 | 60 | 1.0 | 2.0 | 0.00 | 0.00 | 0.00 | 88 | 1014.0 |
| 20260506011513 | 32 | 61 | 1.0 | 4.0 | 0.00 | 0.00 | 0.00 | 88 | 1013.9 |
| 20260506010112 | 31 | 66 | 2.0 | 4.0 | 0.00 | 0.00 | 0.00 | 89 | 1013.7 |
| 20260506004511 | 31 | 93 | 2.0 | 3.0 | 0.00 | 0.00 | 0.00 | 89 | 1013.7 |
| 20260506003009 | 32 | 134 | 0.0 | 2.0 | 0.00 | 0.00 | 0.00 | 89 | 1013.9 |
| 20260506001507 | 32 | 134 | 1.0 | 3.0 | 0.00 | 0.00 | 0.00 | 90 | 1013.9 |
| 20260506000005 | 32 | 144 | 1.0 | 3.0 | 0.00 | 0.00 | 0.00 | 90 | 1013.7 |
| 20260505234504 | 32 | 177 | 0.0 | 2.0 | 0.00 | 0.00 | 0.00 | 90 | 1013.8 |
| 20260505233102 | 32 | 184 | 0.0 | 0.0 | 0.00 | 0.00 | 0.00 | 91 | 1013.9 |
| 20260505231558 | 33 | 190 | 0.0 | 0.0 | 0.00 | 0.00 | 0.00 | 91 | 1014.0 |
| 20260505230105 | 33 | 203 | 0.0 | 0.0 | 0.00 | 0.00 | 0.00 | 91 | 1013.9 |
| 20260505224554 | 34 | 203 | 0.0 | 0.0 | 0.00 | 0.00 | 0.00 | 92 | 1014.0 |
| 20260505223102 | 34 | 203 | 0.0 | 0.0 | 0.00 | 0.00 | 0.00 | 92 | 1013.9 |
| 20260505221550 | 35 | 206 | 0.0 | 0.0 | 0.00 | 0.00 | 0.00 | 92 | 1014.0 |
| 20260505220046 | 35 | 206 | 0.0 | 0.0 | 0.00 | 0.00 | 0.00 | 92 | 1013.8 |
| 20260505214543 | 36 | 206 | 0.0 | 0.0 | 0.00 | 0.00 | 0.00 | 92 | 1013.7 |
| 20260505213052 | 37 | 206 | 0.0 | 0.0 | 0.00 | 0.00 | 0.00 | 93 | 1013.6 |
| 20260505211538 | 37 | 206 | 1.0 | 2.0 | 0.00 | 0.00 | 0.00 | 94 | 1013.5 |
| 20260505210034 | 38 | 206 | 1.0 | 2.0 | 0.00 | 0.00 | 0.00 | 96 | 1013.4 |
| 20260505204531 | 39 | 207 | 0.0 | 0.0 | 0.00 | 0.00 | 0.00 | 96 | 1013.4 |
| 20260505203040 | 40 | 207 | 0.0 | 0.0 | 0.00 | 0.00 | 0.00 | 95 | 1013.3 |
| 20260505201525 | 40 | 207 | 0.0 | 0.0 | 0.00 | 0.00 | 0.00 | 96 | 1013.0 |
| 20260505200031 | 41 | 207 | 0.0 | 0.0 | 0.00 | 0.00 | 0.00 | 96 | 1012.8 |
| 20260505194519 | 42 | 207 | 0.0 | 0.0 | 0.00 | 0.00 | 0.00 | 97 | 1012.7 |
| 20260505193018 | 43 | 207 | 0.0 | 0.0 | 0.00 | 0.00 | 0.00 | 97 | 1012.6 |
| 20260505191516 | 44 | 207 | 0.0 | 2.0 | 0.00 | 0.00 | 0.00 | 97 | 1012.6 |
| 20260505190015 | 46 | 207 | 1.0 | 2.0 | 0.00 | 0.00 | 0.00 | 96 | 1012.4 |
| 20260505184519 | 46 | 207 | 0.0 | 2.0 | 0.00 | 0.00 | 0.00 | 96 | 1012.3 |
| 20260505183013 | 47 | 207 | 1.0 | 3.0 | 0.00 | 0.00 | 0.00 | 96 | 1012.1 |
| 20260505181512 | 48 | 207 | 1.0 | 3.0 | 0.00 | 0.00 | 0.00 | 96 | 1011.9 |
| 20260505180011 | 49 | 207 | 2.0 | 4.0 | 0.00 | 0.00 | 0.00 | 95 | 1011.8 |
| 20260505174515 | 50 | 243 | 2.0 | 4.0 | 0.00 | 0.00 | 0.00 | 94 | 1011.8 |
| 20260505173030 | 50 | 278 | 1.0 | 4.0 | 0.00 | 0.00 | 0.00 | 93 | 1011.7 |
| 20260505171509 | 51 | 229 | 3.0 | 4.0 | 0.00 | 0.00 | 0.00 | 92 | 1011.7 |
| 20260505170013 | 51 | 221 | 2.0 | 5.0 | 0.00 | 0.00 | 0.00 | 92 | 1011.6 |
| 20260505164524 | 51 | 229 | 3.0 | 7.0 | 0.00 | 0.00 | 0.00 | 90 | 1011.6 |
| 20260505163013 | 51 | 236 | 3.0 | 6.0 | 0.00 | 0.00 | 0.00 | 91 | 1011.5 |
| 20260505161508 | 52 | 221 | 3.0 | 8.0 | 0.00 | 0.00 | 0.00 | 89 | 1011.5 |
| 20260505153010 | 52 | 243 | 5.0 | 9.0 | 0.00 | 0.00 | 0.00 | 88 | 1011.6 |
| 20260505151505 | 52 | 238 | 6.0 | 10.0 | 0.00 | 0.00 | 0.00 | 89 | 1011.7 |
| 20260505130104 | 52 | 238 | 5.0 | 9.0 | 0.00 | 0.00 | 0.00 | 91 | 1011.8 |
| 20260505124559 | 53 | 242 | 5.0 | 9.0 | 0.00 | 0.00 | 0.00 | 90 | 1011.7 |
| 20260505123106 | 53 | 232 | 5.0 | 9.0 | 0.00 | 0.00 | 0.00 | 89 | 1011.6 |
| 20260505121556 | 53 | 239 | 5.0 | 9.0 | 0.00 | 0.00 | 0.00 | 89 | 1011.6 |
| 20260505120057 | 53 | 222 | 5.0 | 11.0 | 0.00 | 0.00 | 0.00 | 89 | 1011.4 |
| 20260505114554 | 53 | 225 | 6.0 | 10.0 | 0.00 | 0.00 | 0.00 | 87 | 1011.5 |
| 20260505113058 | 53 | 225 | 5.0 | 9.0 | 0.00 | 0.00 | 0.00 | 87 | 1011.4 |
| 20260505111555 | 52 | 234 | 3.0 | 7.0 | 0.00 | 0.00 | 0.00 | 89 | 1011.4 |
| 20260505101537 | 51 | 236 | 4.0 | 8.0 | 0.00 | 0.00 | 0.00 | 88 | 1011.1 |
| 20260505100042 | 50 | 229 | 5.0 | 10.0 | 0.00 | 0.00 | 0.00 | 90 | 1011.1 |
| 20260505094533 | 50 | 236 | 5.0 | 9.0 | 0.00 | 0.00 | 0.00 | 91 | 1011.1 |
| 20260505093133 | 50 | 244 | 4.0 | 11.0 | 0.00 | 0.00 | 0.00 | 91 | 1011.1 |
| 20260505091534 | 50 | 276 | 4.0 | 10.0 | 0.00 | 0.00 | 0.00 | 88 | 1011.0 |
| 20260505090044 | 49 | 271 | 5.0 | 10.0 | 0.00 | 0.00 | 0.00 | 90 | 1010.9 |
| 20260505084534 | 49 | 254 | 5.0 | 13.0 | 0.00 | 0.00 | 0.00 | 90 | 1010.8 |
| 20260505083034 | 49 | 235 | 4.0 | 10.0 | 0.00 | 0.00 | 0.00 | 89 | 1010.8 |
| 20260505081622 | 49 | 230 | 6.0 | 11.0 | 0.00 | 0.00 | 0.00 | 91 | 1010.7 |
| 20260505080035 | 49 | 221 | 5.0 | 11.0 | 0.00 | 0.00 | 0.00 | 92 | 1010.6 |
| 20260505074516 | 48 | 232 | 5.0 | 11.0 | 0.00 | 0.00 | 0.00 | 91 | 1010.4 |
| 20260505073016 | 48 | 229 | 6.0 | 10.0 | 0.00 | 0.00 | 0.00 | 91 | 1010.4 |
| 20260505071523 | 48 | 247 | 4.0 | 9.0 | 0.00 | 0.00 | 0.00 | 91 | 1010.4 |
| 20260505070011 | 47 | 272 | 5.0 | 13.0 | 0.00 | 0.00 | 0.00 | 92 | 1010.3 |
| 20260505064508 | 48 | 232 | 4.0 | 10.0 | 0.00 | 0.00 | 0.00 | 91 | 1010.3 |
| 20260505063007 | 47 | 227 | 5.0 | 10.0 | 0.00 | 0.00 | 0.00 | 92 | 1010.3 |
| 20260505061508 | 47 | 243 | 5.0 | 9.0 | 0.00 | 0.00 | 0.00 | 93 | 1010.3 |
| 20260505060058 | 47 | 233 | 5.0 | 12.0 | 0.00 | 0.00 | 0.00 | 94 | 1010.3 |
| 20260505054604 | 47 | 236 | 5.0 | 10.0 | 0.00 | 0.00 | 0.00 | 94 | 1010.3 |
| 20260505053050 | 46 | 214 | 6.0 | 10.0 | 0.00 | 0.00 | 0.00 | 93 | 1010.1 |
| 20260505051545 | 46 | 212 | 4.0 | 8.0 | 0.00 | 0.00 | 0.00 | 94 | 1010.0 |
| 20260505041529 | 45 | 223 | 4.0 | 6.0 | 0.00 | 0.00 | 0.00 | 94 | 1009.6 |
| 20260505033031 | 45 | 235 | 3.0 | 8.0 | 0.00 | 0.00 | 0.00 | 95 | 1009.3 |
| 20260505031519 | 44 | 223 | 2.0 | 5.0 | 0.00 | 0.00 | 0.00 | 96 | 1009.2 |
| 20260505023011 | 43 | 197 | 2.0 | 4.0 | 0.00 | 0.00 | 0.00 | 94 | 1009.1 |
| 20260505021525 | 44 | 197 | 2.0 | 4.0 | 0.00 | 0.00 | 0.00 | 94 | 1009.1 |
| 20260505020008 | 44 | 196 | 2.0 | 9.0 | 0.00 | 0.00 | 0.00 | 94 | 1008.9 |
| 20260505014508 | 43 | 235 | 3.0 | 5.0 | 0.00 | 0.00 | 0.00 | 96 | 1008.9 |